This demonstration page uses our WeatherBlox Daily Observations layout. Learn more.

Left ArrowRight Arrow

38.89511, -77.03637

Hourly Observations for April 10, 2023

Temp ( °F °C ) Dew Point ( °F °C ) Humidity (%) Winds ( mph kmh ) Pressure ( in mb ) Visibility ( mi km ) Precip ( " mm )
12:52 am 00:52 Clear 47 8.3 31 -0.6 53 53 S 9 15 30.48 1032 10 16 0.00 0.00
1:52 am 01:52 Clear 46 7.8 32 0 58 58 SSW 5 7 30.49 1032 10 16 0.00 0.00
2:52 am 02:52 Mostly Clear 44 6.7 32 0 62 62 SSW 6 9 30.48 1032 10 16 0.00 0.00
3:52 am 03:52 Mostly Clear 45 7.2 33 0.6 63 63 WSW 5 7 30.48 1032 10 16 0.00 0.00
4:52 am 04:52 Clear 44 6.7 31 -0.6 60 60 SSW 3 6 30.49 1033 10 16 0.00 0.00
5:52 am 05:52 Clear 44 6.7 31 -0.6 60 60 SSW 5 7 30.50 1033 10 16 0.00 0.00
6:52 am 06:52 Sunny 43 6.1 31 -0.6 62 62 Calm 30.51 1033 10 16 0.00 0.00
7:52 am 07:52 Sunny 46 7.8 37 2.8 71 71 SW 3 6 30.53 1034 10 16 0.00 0.00
8:52 am 08:52 Sunny 50 10 35 1.7 56 56 SW 6 9 30.53 1034 10 16 0.00 0.00
9:52 am 09:52 Sunny 53 11.7 35 1.7 50 50 S 9 15 30.53 1034 10 16 0.00 0.00
10:52 am 10:52 Sunny 56 13.3 32 0 40 40 SSE 9 15 30.52 1034 10 16 0.00 0.00
11:52 am 11:52 Sunny 59 15 34 1.1 39 39 S 8 13 30.51 1033 10 16 0.00 0.00
12:52 pm 12:52 Sunny 61 16.1 32 0 33 33 SSE 8 13 30.48 1032 10 16 0.00 0.00
1:52 pm 13:52 Sunny 63 17.2 30 -1.1 29 29 SSE 7 11 30.45 1031 10 16 0.00 0.00
2:52 pm 14:52 Sunny 62 16.7 27 -2.8 26 26 SSE 6 9 30.43 1030 10 16 0.00 0.00
3:52 pm 15:52 Sunny 64 17.8 26 -3.3 23 23 SSE 5 7 30.40 1030 10 16 0.00 0.00
4:52 pm 16:52 Sunny 64 17.8 27 -2.8 24 24 SSE 6 9 30.38 1029 10 16 0.00 0.00
5:52 pm 17:52 Sunny 64 17.8 31 -0.6 29 29 S 7 11 30.37 1029 10 16 0.00 0.00
6:52 pm 18:52 Sunny 62 16.7 29 -1.7 28 28 S 10 17 30.37 1028 10 16 0.00 0.00
7:52 pm 19:52 Clear 59 15 29 -1.7 32 32 S 9 15 30.36 1028 10 16 0.00 0.00
8:52 pm 20:52 Clear 57 13.9 30 -1.1 35 35 SSW 9 15 30.38 1029 10 16 0.00 0.00
9:52 pm 21:52 Clear 54 12.2 31 -0.6 41 41 SSW 8 13 30.40 1029 10 16 0.00 0.00
10:52 pm 22:52 Clear 53 11.7 32 0 44 44 SSW 9 15 30.39 1029 10 16 0.00 0.00
11:52 pm 23:52 Clear 52 11.1 33 0.6 48 48 SSW 12 19 30.37 1029 10 16 0.00 0.00

Powered by Vaisala Xweather